Location: ?????????
(54.7630°N, 39.4991°E)
Time: 11:33:51
(UTC+00:00)

NOSS 2-1 (D) - Pass Details

Date: 14 April 2026
Orbit: 373 x 1667 km, 63.3° (Epoch: 9 May)

Event Time Altitude Azimuth Distance (km) Brightness Sun altitude
Rises 17:14:19 0° 310° (NW) 2,249 8.5 -7.5°
Reaches altitude 10° 17:16:18 10° 319° (NW) 1,425 6.8 -7.8°
Maximum altitude 17:19:11 38° 31° (NNE) 668 3.8 -8.1°
Enters shadow 17:22:32 10° 101° (E) 1,664 5.2 -8.6°
